Regional Weather Roundup
Issued by NWS Sterling, VA

Home | Current Version | Previous Version | Text Only | Print | Product List | Glossary On
Versions: 1 2 3 4 5 6 7 8 9 10 11 12 13 14 15 16 17 18 19 20 21 22 23 24 25 26 27 28
000
ASUS41 KLWX 212110
RWRLWX

REGIONAL WEATHER ROUNDUP
NATIONAL WEATHER SERVICE BALTIMORE MD/WASHINGTON DC
400 PM EST TUE FEB 21 2017

Note: "FAIR" indicates few or no clouds below 12,000 feet
with no significant weather and/or obstructions to visibility.
 TC=TEMPERATURE CELSIUS

 * =Non NWS site. Station does not report precipitation (e.g. rain,
    snow, etc.), thunder, or fog.

DCZ001-MDZ009-015-VAZ040>042-051-053>054-212200-
WASHINGTON METRO

CITY           SKY/WX    TMP DP  RH WIND       PRES   REMARKS
WASHINGTON NAT PTSUNNY   55  33  43 S9        30.18F
DULLES         CLOUDY    55  31  39 SE10      30.16F
ANDREWS AFB    MOSUNNY   54  28  36 S10       30.17F
FT BELVOIR     CLOUDY    55  33  42 SE6       30.17F
QUANTICO       CLOUDY    52  40  63 S6        30.18F
COLLEGE PARK*  MOSUNNY   54  28  37 SE6       30.18R
LEESBURG*      MOSUNNY   55  34  44 SE12      30.16F
MANASSAS*      CLOUDY    56  34  43 SE12      30.17F
GAITHERSBURG*  MOSUNNY   54  27  35 S9        30.21S

$$

MDZ006>007-011-014-212200-
BALTIMORE METRO

CITY           SKY/WX    TMP DP  RH WIND       PRES   REMARKS
BWI AIRPORT    PTSUNNY   52  33  48 SE6       30.18F
MD SCIENCE CTR   N/A     52  29  41 MISG      30.20F
MARTIN STATE   MOSUNNY   52  36  54 SE9       30.22F
ANNAPOLIS      MOSUNNY   52  34  50 S13       30.19F
FORT MEADE*    MOSUNNY   52  32  46 SE7       30.21S

$$

MDZ012-015-019>023-212200-
MARYLAND EASTERN SHORE

CITY           SKY/WX    TMP DP  RH WIND       PRES   REMARKS
OCEAN CITY     MOSUNNY   46  38  73 SE6       30.25F
SALISBURY      CLOUDY    52  37  56 S10       30.22F
BAY BRIDGE AP* PTSUNNY   52  28  40 S13       30.20F
EASTON*        PTSUNNY   55  30  38 SW9       30.24F

$$

MDZ017>025-212200-
SOUTHERN MARYLAND

CITY           SKY/WX    TMP DP  RH WIND       PRES   REMARKS
PATUXENT RIVER PTSUNNY   48  40  73 SE10      30.21F
ST INIGOES     MOSUNNY   51  37  58 SE7       30.20F
LEONARDTOWN*   MOSUNNY   52  34  50 SE8       30.21F

$$

MDZ003>005-212200-
NORTH CENTRAL MARYLAND

CITY           SKY/WX    TMP DP  RH WIND       PRES   REMARKS
FREDERICK*     SUNNY     55  30  38 S9        30.18F
HAGERSTOWN APT PTSUNNY   55  31  39 S13       30.13F
WESTMINSTER*   MOSUNNY   55  30  38 SE10      30.15F

$$

MDZ501>502-212200-
WESTERN MARYLAND

CITY           SKY/WX    TMP DP  RH WIND       PRES   REMARKS
OAKLAND*       MOSUNNY   50  32  50 SE9       30.06S
CUMBERLAND*    CLOUDY    59  32  36 SE3       30.12S

$$

VAZ025>031-212200-
SHENANDOAH VALLEY

CITY           SKY/WX    TMP DP  RH WIND       PRES   REMARKS
WINCHESTER*    CLOUDY    54  34  47 SE9       30.12S
FRONT ROYAL*   PTSUNNY   59  34  38 S8        30.11S
LURAY*         CLOUDY    59  36  41 SW10      30.11F
NEW MARKET*    CLOUDY    59  33  37 S8        30.10F
STAUNTON*      CLOUDY    58  35  42 S10       30.14S
WAYNESBORO*    PTSUNNY   57  32  39 SE10      30.12F

$$

WVZ021-048>050-054>055-212200-
EASTERN WEST VIRGINIA PANHANDLE

CITY           SKY/WX    TMP DP  RH WIND       PRES   REMARKS
MARTINSBURG    CLOUDY    56  33  42 S8        30.12S
PETERSBURG*    MOSUNNY   66  40  38 E7        30.05F

$$

VAZ036>039-050-212200-
CENTRAL FOOTHILLS

CITY           SKY/WX    TMP DP  RH WIND       PRES   REMARKS
CHARLOTTESVILL PTSUNNY   60  35  39 S9        30.14F
CULPEPER*      MOSUNNY   60  35  38 S8        30.16F
ORANGE*        CLOUDY    55  34  44 CALM      30.16F
GORDONSVILLE*  MOSUNNY   59  37  43 S6        30.15S
WARRENTON*     CLOUDY    60  28  30 S7        30.15F

$$

VAZ055>057-212200-
NORTH AND CENTRAL PIEDMONT

CITY           SKY/WX    TMP DP  RH WIND       PRES   REMARKS
FREDERICKSBRG* PTSUNNY   58  35  41 S9        30.16F
STAFFORD*      CLOUDY    58  35  42 SE8       30.20F

$$

NCZ024-NYZ072-PAZ021-071-VAZ022-071-212200-
OTHER REGIONAL OBSERVATIONS

CITY           SKY/WX    TMP DP  RH WIND       PRES   REMARKS
NEW YORK CITY  CLOUDY    44  30  57 MISG      30.25F
PHILADELPHIA   CLOUDY    50  30  46 SW10      30.21F
PITTSBURGH     CLOUDY    65  41  41 SW6       29.98F
ROANOKE        PTSUNNY   61  37  41 SE12      30.14F
RICHMOND       CLOUDY    59  37  44 SE13      30.17F
RALEIGH        CLOUDY    64  34  32 SE3       30.14F

$$

ANZ530>537-212200-
MARINE OBSERVATIONS

STATION/POSITION TIME  TEMP    WIND        PRES
                       AIR SEA DIR/SP/G
                 (UTC) (F)     (DEG/KT/KT) (MB)
THOMAS PT LIGHT  2100   47 43  170/ 17/ 19   N/A
BALT KEY BRIDGE  2036   48     120/ 10/ 11 1022.5F
COVE POINT       2036   45     190/  8/  9 1023.8F
LEWISETTA        2036   47 47  110/ 11/ 13 1022.7F
SOLOMONS ISLAND  2036   48 44  130/ 13/ 14   N/A
PINEY POINT      2048          140/ 12/ 13   N/A

$$





USA.gov is the U.S. government's official web portal to all federal, state and local government web resources and services.